| time (UTC) | temp F | wind direction | speed MPH | gust MPH | rain 1hr in | rain 24hr in | rain mn in | humidity % | barometer mb |
| 20260905182342 | 78 | 46 | 5.0 | 11.0 | 0.00 | 0.00 | 0.00 | 12 | 1008.5 |
| 20260905181842 | 78 | 67 | 3.0 | 7.0 | 0.00 | 0.00 | 0.00 | 8 | 1008.5 |
| 20260905181339 | 77 | 70 | 2.0 | 6.0 | 0.00 | 0.00 | 0.00 | 1 | 1008.6 |
| 20260905180840 | 76 | 63 | 1.0 | 6.0 | 0.00 | 0.00 | 0.00 | 1 | 1008.6 |
| 20260905180339 | 75 | 65 | 2.0 | 9.0 | 0.00 | 0.00 | 0.00 | 1 | 1008.6 |
| 20260905180058 | 75 | 65 | 2.0 | 9.0 | 0.00 | 0.00 | 0.00 | 12 | 1008.6 |
| 20260905175340 | 76 | 41 | 0.0 | 0.0 | 0.00 | 0.00 | 0.00 | 9 | 1008.7 |
| 20260905174840 | 76 | 42 | 2.0 | 9.0 | 0.00 | 0.00 | 0.00 | 13 | 1008.7 |
| 20260905174339 | 77 | 42 | 3.0 | 12.0 | 0.00 | 0.00 | 0.00 | 18 | 1008.7 |
| 20260905173839 | 78 | 48 | 2.0 | 12.0 | 0.00 | 0.00 | 0.00 | 6 | 1008.7 |
| 20260905173339 | 77 | 58 | 3.0 | 10.0 | 0.00 | 0.00 | 0.00 | 11 | 1008.7 |
| 20260905172840 | 76 | 63 | 6.0 | 11.0 | 0.00 | 0.00 | 0.00 | 1 | 1008.7 |
| 20260905172559 | 76 | 69 | 5.0 | 11.0 | 0.00 | 0.00 | 0.00 | 10 | 1008.7 |
| 20260905171839 | 75 | 79 | 4.0 | 9.0 | 0.00 | 0.00 | 0.00 | 5 | 1008.8 |
| 20260905171555 | 75 | 81 | 5.0 | 11.0 | 0.00 | 0.00 | 0.00 | 11 | 1008.8 |
| 20260905170824 | 75 | 74 | 5.0 | 11.0 | 0.00 | 0.00 | 0.00 | 6 | 1008.9 |
| 20260905170319 | 75 | 57 | 6.0 | 11.0 | 0.00 | 0.00 | 0.00 | 1 | 1008.8 |
| 20260905165813 | 75 | 48 | 6.0 | 13.0 | 0.00 | 0.00 | 0.00 | 7 | 1008.9 |
| 20260905165307 | 76 | 69 | 6.0 | 14.0 | 0.00 | 0.00 | 0.00 | 1 | 1008.9 |
| 20260905165020 | 76 | 64 | 7.0 | 14.0 | 0.00 | 0.00 | 0.00 | 1 | 1008.9 |
| 20260905164514 | 75 | 53 | 6.0 | 11.0 | 0.00 | 0.00 | 0.00 | 1 | 1008.9 |
| 20260905163749 | 76 | 50 | 4.0 | 10.0 | 0.00 | 0.00 | 0.00 | 13 | 1008.9 |
| 20260905163243 | 76 | 101 | 3.0 | 9.0 | 0.00 | 0.00 | 0.00 | 1 | 1008.9 |
| 20260905162737 | 76 | 51 | 2.0 | 9.0 | 0.00 | 0.00 | 0.00 | 1 | 1008.9 |
| 20260905162231 | 76 | 92 | 3.0 | 9.0 | 0.00 | 0.00 | 0.00 | 1 | 1008.8 |
| 20260905161947 | 75 | 71 | 6.0 | 12.0 | 0.00 | 0.00 | 0.00 | 1 | 1008.8 |
| 20260905161653 | 76 | 40 | 6.0 | 12.0 | 0.00 | 0.00 | 0.00 | 4 | 1008.9 |
| 20260905160713 | 76 | 76 | 5.0 | 11.0 | 0.00 | 0.00 | 0.00 | 1 | 1009.0 |
| 20260905160207 | 76 | 57 | 6.0 | 11.0 | 0.00 | 0.00 | 0.00 | 1 | 1008.9 |
| 20260905155702 | 76 | 83 | 5.0 | 10.0 | 0.00 | 0.00 | 0.00 | 1 | 1008.9 |
| 20260905155417 | 76 | 65 | 4.0 | 12.0 | 0.00 | 0.00 | 0.00 | 1 | 1008.9 |
| 20260905154650 | 76 | 59 | 6.0 | 12.0 | 0.00 | 0.00 | 0.00 | 1 | 1008.9 |
| 20260905154143 | 75 | 77 | 6.0 | 12.0 | 0.00 | 0.00 | 0.00 | 1 | 1008.9 |
| 20260905153636 | 75 | 47 | 7.0 | 12.0 | 0.00 | 0.00 | 0.00 | 1 | 1008.9 |
| 20260905153613 | 75 | 64 | 6.0 | 12.0 | 0.00 | 0.00 | 0.00 | 1 | 1009.1 |
| 20260905152624 | 75 | 59 | 6.0 | 12.0 | 0.00 | 0.00 | 0.00 | 1 | 1009.1 |
| 20260905152119 | 75 | 77 | 6.0 | 12.0 | 0.00 | 0.00 | 0.00 | 1 | 1009.1 |
| 20260905151613 | 75 | 58 | 5.0 | 12.0 | 0.00 | 0.00 | 0.00 | 1 | 1009.1 |
| 20260905151107 | 74 | 53 | 3.0 | 10.0 | 0.00 | 0.00 | 0.00 | 1 | 1009.1 |
| 20260905150600 | 74 | 44 | 3.0 | 9.0 | 0.00 | 0.00 | 0.00 | 1 | 1009.1 |
| 20260905150055 | 75 | 284 | 5.0 | 11.0 | 0.00 | 0.00 | 0.00 | 1 | 1009.1 |
| 20260905145809 | 74 | 73 | 6.0 | 13.0 | 0.00 | 0.00 | 0.00 | 1 | 1009.1 |
| 20260905145307 | 74 | 53 | 7.0 | 13.0 | 0.00 | 0.00 | 0.00 | 1 | 1009.3 |
| 20260905144538 | 74 | 79 | 7.0 | 12.0 | 0.00 | 0.00 | 0.00 | 1 | 1009.2 |
| 20260905144031 | 74 | 62 | 5.0 | 13.0 | 0.00 | 0.00 | 0.00 | 1 | 1009.1 |
| 20260905143525 | 74 | 49 | 5.0 | 13.0 | 0.00 | 0.00 | 0.00 | 1 | 1009.1 |
| 20260905143018 | 74 | 56 | 3.0 | 9.0 | 0.00 | 0.00 | 0.00 | 1 | 1009.1 |
| 20260905142513 | 73 | 103 | 3.0 | 9.0 | 0.00 | 0.00 | 0.00 | 1 | 1009.1 |
| 20260905142007 | 73 | 77 | 3.0 | 9.0 | 0.00 | 0.00 | 0.00 | 1 | 1009.0 |
| 20260905141501 | 73 | 64 | 2.0 | 9.0 | 0.00 | 0.00 | 0.00 | 1 | 1009.0 |
| 20260905140955 | 73 | 53 | 1.0 | 7.0 | 0.00 | 0.00 | 0.00 | 1 | 1009.0 |
| 20260905140449 | 73 | 57 | 1.0 | 6.0 | 0.00 | 0.00 | 0.00 | 1 | 1009.0 |
| 20260905135943 | 73 | 66 | 1.0 | 6.0 | 0.00 | 0.00 | 0.00 | 1 | 1009.0 |
| 20260905135437 | 72 | 68 | 2.0 | 8.0 | 0.00 | 0.00 | 0.00 | 1 | 1008.9 |
| 20260905134930 | 72 | 60 | 2.0 | 8.0 | 0.00 | 0.00 | 0.00 | 1 | 1009.0 |
| 20260905134658 | 72 | 59 | 1.0 | 6.0 | 0.00 | 0.00 | 0.00 | 1 | 1009.1 |
| 20260905133931 | 71 | 59 | 1.0 | 5.0 | 0.00 | 0.00 | 0.00 | 1 | 1009.1 |
| 20260905133638 | 70 | 59 | 0.0 | 2.0 | 0.00 | 0.00 | 0.00 | 1 | 1009.1 |
| 20260905133523 | 71 | 59 | 0.0 | 2.0 | 0.00 | 0.00 | 0.00 | 1 | 1009.0 |
| 20260905132647 | 69 | 59 | 0.0 | 1.0 | 0.00 | 0.00 | 0.00 | 1 | 1009.2 |
| 20260905132147 | 68 | 59 | 0.0 | 1.0 | 0.00 | 0.00 | 0.00 | 1 | 1009.4 |
| 20260905131423 | 68 | 59 | 0.0 | 1.0 | 0.00 | 0.00 | 0.00 | 1 | 1009.4 |
| 20260905130922 | 67 | 59 | 0.0 | 0.0 | 0.00 | 0.00 | 0.00 | 1 | 1009.4 |
| 20260905130420 | 67 | 59 | 0.0 | 0.0 | 0.00 | 0.00 | 0.00 | 1 | 1009.5 |
| 20260905125917 | 66 | 59 | 0.0 | 0.0 | 0.00 | 0.00 | 0.00 | 1 | 1009.6 |
| 20260905125415 | 65 | 59 | 0.0 | 1.0 | 0.00 | 0.00 | 0.00 | 1 | 1009.6 |
| 20260905124913 | 64 | 59 | 0.0 | 1.0 | 0.00 | 0.00 | 0.00 | 1 | 1009.7 |
| 20260905124414 | 64 | 60 | 0.0 | 0.0 | 0.00 | 0.00 | 0.00 | 1 | 1009.6 |
| 20260905123913 | 63 | 60 | 0.0 | 0.0 | 0.00 | 0.00 | 0.00 | 1 | 1009.7 |
| 20260905123414 | 62 | 60 | 0.0 | 0.0 | 0.00 | 0.00 | 0.00 | 1 | 1009.8 |
| 20260905122914 | 62 | 60 | 0.0 | 0.0 | 0.00 | 0.00 | 0.00 | 1 | 1009.9 |
| 20260905122412 | 62 | 60 | 0.0 | 0.0 | 0.00 | 0.00 | 0.00 | 1 | 1009.9 |
| 20260905121909 | 61 | 0 | 0.0 | 0.0 | 0.00 | 0.00 | 0.00 | 1 | 1009.9 |
| 20260905121409 | 61 | 0 | 0.0 | 0.0 | 0.00 | 0.00 | 0.00 | 1 | 1009.8 |
| 20260905120909 | 61 | 66 | 0.0 | 0.0 | 0.00 | 0.00 | 0.00 | 1 | 1009.8 |
| 20260905120407 | 60 | 66 | 0.0 | 0.0 | 0.00 | 0.00 | 0.00 | 1 | 1009.7 |
| 20260905115907 | 60 | 66 | 0.0 | 0.0 | 0.00 | 0.00 | 0.00 | 1 | 1009.8 |
| 20260905115407 | 60 | 0 | 0.0 | 0.0 | 0.00 | 0.00 | 0.00 | 1 | 1009.7 |
| 20260905115125 | 59 | 63 | 0.0 | 0.0 | 0.00 | 0.00 | 0.00 | 1 | 1009.6 |
| 20260905114407 | 59 | 63 | 0.0 | 0.0 | 0.00 | 0.00 | 0.00 | 1 | 1009.5 |
| 20260905114347 | 59 | 64 | 0.0 | 0.0 | 0.00 | 0.00 | 0.00 | 1 | 1009.4 |
| 20260905113405 | 59 | 60 | 0.0 | 0.0 | 0.00 | 0.00 | 0.00 | 1 | 1009.5 |
| 20260905112903 | 58 | 60 | 0.0 | 0.0 | 0.00 | 0.00 | 0.00 | 1 | 1009.4 |
| 20260905112403 | 58 | 60 | 0.0 | 0.0 | 0.00 | 0.00 | 0.00 | 1 | 1009.3 |
| 20260905111903 | 58 | 60 | 0.0 | 0.0 | 0.00 | 0.00 | 0.00 | 1 | 1009.2 |
| 20260905111401 | 58 | 60 | 0.0 | 0.0 | 0.00 | 0.00 | 0.00 | 1 | 1009.1 |
| 20260905110901 | 58 | 60 | 0.0 | 0.0 | 0.00 | 0.00 | 0.00 | 1 | 1009.0 |
| 20260905110359 | 58 | 60 | 0.0 | 0.0 | 0.00 | 0.00 | 0.00 | 1 | 1008.9 |
| 20260905105859 | 58 | 60 | 0.0 | 0.0 | 0.00 | 0.00 | 0.00 | 1 | 1008.9 |
| 20260905105358 | 58 | 60 | 0.0 | 0.0 | 0.00 | 0.00 | 0.00 | 1 | 1008.8 |
| 20260905105118 | 58 | 61 | 0.0 | 0.0 | 0.00 | 0.00 | 0.00 | 1 | 1008.7 |
| 20260905104842 | 58 | 61 | 0.0 | 0.0 | 0.00 | 0.00 | 0.00 | 1 | 1008.6 |
| 20260905103852 | 58 | 61 | 0.0 | 0.0 | 0.00 | 0.00 | 0.00 | 1 | 1008.6 |
| 20260905103354 | 58 | 61 | 0.0 | 0.0 | 0.00 | 0.00 | 0.00 | 1 | 1008.5 |
| 20260905102850 | 58 | 61 | 0.0 | 0.0 | 0.00 | 0.00 | 0.00 | 1 | 1008.4 |
| 20260905102350 | 58 | 61 | 0.0 | 0.0 | 0.00 | 0.00 | 0.00 | 1 | 1008.3 |
| 20260905101849 | 58 | 61 | 0.0 | 0.0 | 0.00 | 0.00 | 0.00 | 1 | 1008.4 |
| 20260905101349 | 58 | 61 | 0.0 | 0.0 | 0.00 | 0.00 | 0.00 | 1 | 1008.4 |
| 20260905101105 | 58 | 61 | 0.0 | 0.0 | 0.00 | 0.00 | 0.00 | 1 | 1008.2 |
| 20260905100347 | 58 | 61 | 0.0 | 0.0 | 0.00 | 0.00 | 0.00 | 1 | 1008.2 |
| 20260905095844 | 59 | 61 | 0.0 | 0.0 | 0.00 | 0.00 | 0.00 | 1 | 1008.2 |
| 20260905095345 | 59 | 61 | 0.0 | 0.0 | 0.00 | 0.00 | 0.00 | 1 | 1008.2 |
| 20260905095108 | 59 | 61 | 0.0 | 0.0 | 0.00 | 0.00 | 0.00 | 1 | 1008.2 |
| 20260905094602 | 59 | 61 | 0.0 | 0.0 | 0.00 | 0.00 | 0.00 | 1 | 1008.2 |
| 20260905093844 | 59 | 61 | 0.0 | 0.0 | 0.00 | 0.00 | 0.00 | 1 | 1008.3 |
| 20260905093343 | 59 | 61 | 0.0 | 0.0 | 0.00 | 0.00 | 0.00 | 1 | 1008.2 |
| 20260905092838 | 59 | 61 | 0.0 | 0.0 | 0.00 | 0.00 | 0.00 | 1 | 1008.3 |
| 20260905092338 | 59 | 61 | 0.0 | 0.0 | 0.00 | 0.00 | 0.00 | 1 | 1008.3 |
| 20260905091836 | 59 | 61 | 0.0 | 0.0 | 0.00 | 0.00 | 0.00 | 1 | 1008.3 |
| 20260905091334 | 59 | 61 | 0.0 | 0.0 | 0.00 | 0.00 | 0.00 | 1 | 1008.3 |
| 20260905090836 | 59 | 61 | 0.0 | 0.0 | 0.00 | 0.00 | 0.00 | 1 | 1008.3 |
| 20260905090334 | 59 | 61 | 0.0 | 0.0 | 0.00 | 0.00 | 0.00 | 1 | 1008.3 |
| 20260905085832 | 60 | 61 | 0.0 | 0.0 | 0.00 | 0.00 | 0.00 | 1 | 1008.3 |
| 20260905085332 | 60 | 61 | 0.0 | 0.0 | 0.00 | 0.00 | 0.00 | 1 | 1008.4 |
| 20260905084833 | 60 | 61 | 0.0 | 0.0 | 0.00 | 0.00 | 0.00 | 1 | 1008.4 |
| 20260905084553 | 60 | 61 | 0.0 | 0.0 | 0.00 | 0.00 | 0.00 | 1 | 1008.3 |
| 20260905084045 | 60 | 61 | 0.0 | 0.0 | 0.00 | 0.00 | 0.00 | 1 | 1008.3 |
| 20260905083328 | 60 | 61 | 0.0 | 0.0 | 0.00 | 0.00 | 0.00 | 1 | 1008.4 |
| 20260905082828 | 60 | 61 | 0.0 | 0.0 | 0.00 | 0.00 | 0.00 | 1 | 1008.4 |
| 20260905082329 | 60 | 61 | 0.0 | 0.0 | 0.00 | 0.00 | 0.00 | 1 | 1008.3 |
| 20260905081829 | 60 | 61 | 0.0 | 0.0 | 0.00 | 0.00 | 0.00 | 1 | 1008.2 |
| 20260905081329 | 60 | 61 | 0.0 | 0.0 | 0.00 | 0.00 | 0.00 | 1 | 1008.2 |
| 20260905081051 | 60 | 61 | 0.0 | 0.0 | 0.00 | 0.00 | 0.00 | 1 | 1008.3 |
| 20260905080329 | 60 | 61 | 0.0 | 0.0 | 0.00 | 0.00 | 0.00 | 1 | 1008.3 |
| 20260905075829 | 60 | 61 | 0.0 | 0.0 | 0.00 | 0.00 | 0.00 | 1 | 1008.3 |
| 20260905075325 | 60 | 61 | 0.0 | 0.0 | 0.00 | 0.00 | 0.00 | 1 | 1008.4 |
| 20260905075043 | 60 | 61 | 0.0 | 0.0 | 0.00 | 0.00 | 0.00 | 1 | 1008.3 |
| 20260905074326 | 60 | 61 | 0.0 | 0.0 | 0.00 | 0.00 | 0.00 | 1 | 1008.3 |
| 20260905073824 | 60 | 61 | 0.0 | 0.0 | 0.00 | 0.00 | 0.00 | 1 | 1008.3 |
| 20260905073324 | 60 | 61 | 0.0 | 0.0 | 0.00 | 0.00 | 0.00 | 1 | 1008.4 |
| 20260905072825 | 60 | 61 | 0.0 | 0.0 | 0.00 | 0.00 | 0.00 | 1 | 1008.4 |
| 20260905072325 | 60 | 61 | 0.0 | 0.0 | 0.00 | 0.00 | 0.00 | 1 | 1008.4 |
| 20260905071825 | 61 | 61 | 0.0 | 0.0 | 0.00 | 0.00 | 0.00 | 1 | 1008.4 |
| 20260905071325 | 61 | 61 | 0.0 | 0.0 | 0.00 | 0.00 | 0.00 | 1 | 1008.4 |
| 20260905070820 | 61 | 61 | 0.0 | 0.0 | 0.00 | 0.00 | 0.00 | 1 | 1008.4 |
| 20260905070542 | 61 | 61 | 0.0 | 0.0 | 0.00 | 0.00 | 0.00 | 1 | 1008.4 |
| 20260905065820 | 61 | 61 | 0.0 | 0.0 | 0.00 | 0.00 | 0.00 | 1 | 1008.5 |
| 20260905065320 | 61 | 61 | 0.0 | 0.0 | 0.00 | 0.00 | 0.00 | 1 | 1008.5 |
| 20260905064821 | 61 | 61 | 0.0 | 0.0 | 0.00 | 0.00 | 0.00 | 1 | 1008.5 |
| 20260905064546 | 62 | 61 | 0.0 | 0.0 | 0.00 | 0.00 | 0.00 | 1 | 1008.6 |
| 20260905063819 | 62 | 61 | 0.0 | 0.0 | 0.00 | 0.00 | 0.00 | 1 | 1008.7 |
| 20260905063318 | 62 | 61 | 0.0 | 0.0 | 0.00 | 0.00 | 0.00 | 1 | 1008.6 |
| 20260905063036 | 62 | 61 | 0.0 | 0.0 | 0.00 | 0.00 | 0.00 | 1 | 1008.6 |
| 20260905062313 | 62 | 61 | 0.0 | 0.0 | 0.00 | 0.00 | 0.00 | 1 | 1008.7 |
| 20260905061811 | 62 | 61 | 0.0 | 0.0 | 0.00 | 0.00 | 0.00 | 1 | 1008.7 |
| 20260905061748 | 62 | 61 | 0.0 | 0.0 | 0.00 | 0.00 | 0.00 | 1 | 1008.7 |
| 20260905060804 | 62 | 61 | 0.0 | 0.0 | 0.00 | 0.00 | 0.00 | 1 | 1008.8 |
| 20260905060305 | 62 | 61 | 0.0 | 0.0 | 0.00 | 0.00 | 0.00 | 1 | 1008.8 |
| 20260905055803 | 62 | 61 | 0.0 | 0.0 | 0.00 | 0.00 | 0.00 | 1 | 1008.8 |
| 20260905055306 | 62 | 61 | 0.0 | 0.0 | 0.00 | 0.00 | 0.00 | 1 | 1008.9 |
| 20260905054801 | 62 | 61 | 0.0 | 0.0 | 0.00 | 0.00 | 0.00 | 1 | 1008.9 |
| 20260905054301 | 62 | 61 | 0.0 | 0.0 | 0.00 | 0.00 | 0.00 | 1 | 1009.1 |
| 20260905053801 | 62 | 61 | 0.0 | 0.0 | 0.00 | 0.00 | 0.00 | 1 | 1009.0 |
| 20260905053259 | 62 | 61 | 0.0 | 0.0 | 0.00 | 0.00 | 0.00 | 1 | 1009.0 |
| 20260905052759 | 62 | 61 | 0.0 | 0.0 | 0.00 | 0.00 | 0.00 | 1 | 1009.1 |
| 20260905052257 | 62 | 61 | 0.0 | 0.0 | 0.00 | 0.00 | 0.00 | 1 | 1009.1 |
| 20260905051757 | 62 | 61 | 0.0 | 0.0 | 0.00 | 0.00 | 0.00 | 1 | 1009.3 |
| 20260905051257 | 62 | 61 | 0.0 | 0.0 | 0.00 | 0.00 | 0.00 | 1 | 1009.3 |
| 20260905050757 | 62 | 61 | 0.0 | 0.0 | 0.00 | 0.00 | 0.00 | 1 | 1009.3 |
| 20260905050255 | 63 | 61 | 0.0 | 0.0 | 0.00 | 0.00 | 0.00 | 1 | 1009.4 |
| 20260905050018 | 63 | 61 | 0.0 | 0.0 | 0.00 | 0.00 | 0.00 | 1 | 1009.4 |
| 20260905045248 | 63 | 61 | 0.0 | 0.0 | 0.00 | 0.00 | 0.00 | 1 | 1009.4 |
| 20260905044742 | 63 | 61 | 0.0 | 0.0 | 0.00 | 0.00 | 0.00 | 1 | 1009.4 |
| 20260905044504 | 63 | 61 | 0.0 | 0.0 | 0.00 | 0.00 | 0.00 | 1 | 1009.4 |
| 20260905044212 | 63 | 61 | 0.0 | 0.0 | 0.00 | 0.00 | 0.00 | 1 | 1009.4 |
| 20260905043224 | 63 | 61 | 0.0 | 0.0 | 0.00 | 0.00 | 0.00 | 1 | 1009.3 |
| 20260905042717 | 64 | 61 | 0.0 | 0.0 | 0.00 | 0.00 | 0.00 | 1 | 1009.2 |
| 20260905042211 | 64 | 61 | 0.0 | 0.0 | 0.00 | 0.00 | 0.00 | 1 | 1009.3 |
| 20260905041706 | 64 | 61 | 0.0 | 0.0 | 0.00 | 0.00 | 0.00 | 1 | 1009.3 |
| 20260905041200 | 64 | 61 | 0.0 | 0.0 | 0.00 | 0.00 | 0.00 | 1 | 1009.4 |
| 20260905040654 | 64 | 61 | 0.0 | 0.0 | 0.00 | 0.00 | 0.00 | 1 | 1009.3 |
| 20260905040148 | 64 | 61 | 0.0 | 0.0 | 0.00 | 0.00 | 0.00 | 1 | 1009.4 |
| 20260905035642 | 64 | 61 | 0.0 | 0.0 | 0.00 | 0.00 | 0.00 | 1 | 1009.4 |
| 20260905035136 | 64 | 61 | 0.0 | 0.0 | 0.00 | 0.00 | 0.00 | 1 | 1009.3 |
| 20260905034630 | 65 | 61 | 0.0 | 0.0 | 0.00 | 0.00 | 0.00 | 1 | 1009.4 |
| 20260905034125 | 65 | 61 | 0.0 | 0.0 | 0.00 | 0.00 | 0.00 | 1 | 1009.4 |
| 20260905033618 | 65 | 61 | 0.0 | 0.0 | 0.00 | 0.00 | 0.00 | 1 | 1009.5 |
| 20260905032606 | 65 | 61 | 0.0 | 0.0 | 0.00 | 0.00 | 0.00 | 1 | 1009.3 |
| 20260905032325 | 65 | 61 | 0.0 | 0.0 | 0.00 | 0.00 | 0.00 | 1 | 1009.3 |
| 20260905031554 | 65 | 61 | 0.0 | 0.0 | 0.00 | 0.00 | 0.00 | 1 | 1009.2 |
| 20260905031309 | 65 | 61 | 0.0 | 0.0 | 0.00 | 0.00 | 0.00 | 1 | 1009.1 |
| 20260905030543 | 65 | 61 | 0.0 | 0.0 | 0.00 | 0.00 | 0.00 | 1 | 1009.1 |
| 20260905030036 | 65 | 61 | 0.0 | 0.0 | 0.00 | 0.00 | 0.00 | 1 | 1009.1 |
| 20260905025530 | 65 | 61 | 0.0 | 0.0 | 0.00 | 0.00 | 0.00 | 1 | 1009.2 |
| 20260905025024 | 65 | 61 | 0.0 | 1.0 | 0.00 | 0.00 | 0.00 | 1 | 1009.3 |
| 20260905024518 | 65 | 61 | 0.0 | 1.0 | 0.00 | 0.00 | 0.00 | 1 | 1009.3 |
| 20260905024431 | 65 | 60 | 0.0 | 1.0 | 0.00 | 0.00 | 0.00 | 1 | 1009.2 |
| 20260905024054 | 65 | 60 | 0.0 | 1.0 | 0.00 | 0.00 | 0.00 | 1 | 1009.3 |
| 20260905023000 | 65 | 59 | 0.0 | 1.0 | 0.00 | 0.00 | 0.00 | 1 | 1009.2 |
| 20260905022454 | 65 | 59 | 0.0 | 1.0 | 0.00 | 0.00 | 0.00 | 1 | 1009.2 |
| 20260905021947 | 65 | 59 | 0.0 | 0.0 | 0.00 | 0.00 | 0.00 | 1 | 1009.3 |
| 20260905021927 | 65 | 59 | 0.0 | 0.0 | 0.00 | 0.00 | 0.00 | 1 | 1009.2 |
| 20260905021155 | 65 | 59 | 0.0 | 0.0 | 0.00 | 0.00 | 0.00 | 1 | 1009.2 |
| 20260905020906 | 65 | 59 | 0.0 | 0.0 | 0.00 | 0.00 | 0.00 | 1 | 1009.2 |
| 20260905015924 | 65 | 59 | 0.0 | 0.0 | 0.00 | 0.00 | 0.00 | 1 | 1009.1 |
| 20260905015418 | 66 | 59 | 0.0 | 0.0 | 0.00 | 0.00 | 0.00 | 1 | 1009.1 |
| 20260905014912 | 66 | 59 | 0.0 | 0.0 | 0.00 | 0.00 | 0.00 | 1 | 1009.1 |
| 20260905014406 | 66 | 59 | 0.0 | 0.0 | 0.00 | 0.00 | 0.00 | 1 | 1009.1 |
| 20260905014122 | 66 | 59 | 0.0 | 0.0 | 0.00 | 0.00 | 0.00 | 1 | 1009.1 |
| 20260905013354 | 66 | 59 | 0.0 | 0.0 | 0.00 | 0.00 | 0.00 | 1 | 1009.1 |
| 20260905013112 | 66 | 59 | 0.0 | 1.0 | 0.00 | 0.00 | 0.00 | 1 | 1009.2 |
| 20260905012559 | 67 | 59 | 0.0 | 1.0 | 0.00 | 0.00 | 0.00 | 1 | 1009.3 |
| 20260905011836 | 67 | 59 | 0.0 | 0.0 | 0.00 | 0.00 | 0.00 | 1 | 1009.3 |
| 20260905011329 | 67 | 59 | 0.0 | 0.0 | 0.00 | 0.00 | 0.00 | 1 | 1009.2 |
| 20260905010824 | 68 | 59 | 0.0 | 0.0 | 0.00 | 0.00 | 0.00 | 1 | 1009.1 |
| 20260905010318 | 68 | 59 | 0.0 | 1.0 | 0.00 | 0.00 | 0.00 | 1 | 1009.1 |
| 20260905010255 | 68 | 59 | 0.0 | 1.0 | 0.00 | 0.00 | 0.00 | 1 | 1009.1 |
| 20260905005307 | 68 | 59 | 0.0 | 0.0 | 0.00 | 0.00 | 0.00 | 1 | 1009.2 |
| 20260905004800 | 68 | 59 | 0.0 | 1.0 | 0.00 | 0.00 | 0.00 | 1 | 1009.2 |
| 20260905004254 | 69 | 59 | 0.0 | 1.0 | 0.00 | 0.00 | 0.00 | 1 | 1009.1 |
| 20260905003748 | 69 | 59 | 0.0 | 0.0 | 0.00 | 0.00 | 0.00 | 1 | 1009.1 |
| 20260905003243 | 69 | 59 | 0.0 | 0.0 | 0.00 | 0.00 | 0.00 | 1 | 1009.1 |
| 20260905002736 | 70 | 59 | 0.0 | 0.0 | 0.00 | 0.00 | 0.00 | 1 | 1009.1 |
| 20260905002449 | 70 | 59 | 0.0 | 0.0 | 0.00 | 0.00 | 0.00 | 1 | 1009.1 |
| 20260905001952 | 70 | 59 | 0.0 | 0.0 | 0.00 | 0.00 | 0.00 | 1 | 1009.1 |
| 20260905001218 | 71 | 59 | 0.0 | 0.0 | 0.00 | 0.00 | 0.00 | 1 | 1009.0 |
| 20260905000711 | 71 | 59 | 0.0 | 0.0 | 0.00 | 0.00 | 0.00 | 1 | 1008.8 |
| 20260905000206 | 71 | 59 | 0.0 | 0.0 | 0.00 | 0.00 | 0.00 | 1 | 1008.8 |
| 20260904235700 | 72 | 59 | 0.0 | 0.0 | 0.00 | 0.00 | 0.00 | 1 | 1008.7 |
| 20260904235154 | 72 | 59 | 0.0 | 0.0 | 0.00 | 0.00 | 0.00 | 1 | 1008.6 |
| 20260904234648 | 72 | 59 | 0.0 | 0.0 | 0.00 | 0.00 | 0.00 | 1 | 1008.5 |
| 20260904234141 | 73 | 59 | 0.0 | 0.0 | 0.00 | 0.00 | 0.00 | 1 | 1008.5 |
| 20260904233906 | 73 | 59 | 0.0 | 1.0 | 0.00 | 0.00 | 0.00 | 1 | 1008.5 |
| 20260904233131 | 73 | 59 | 0.0 | 1.0 | 0.00 | 0.00 | 0.00 | 1 | 1008.5 |
| 20260904232623 | 74 | 59 | 0.0 | 0.0 | 0.00 | 0.00 | 0.00 | 1 | 1008.5 |
| 20260904232617 | 74 | 59 | 0.0 | 0.0 | 0.00 | 0.00 | 0.00 | 1 | 1008.5 |
| 20260904231612 | 75 | 59 | 0.0 | 0.0 | 0.00 | 0.00 | 0.00 | 1 | 1008.4 |
| 20260904231106 | 76 | 59 | 0.0 | 0.0 | 0.00 | 0.00 | 0.00 | 1 | 1008.4 |
| 20260904230600 | 76 | 59 | 0.0 | 0.0 | 0.00 | 0.00 | 0.00 | 1 | 1008.4 |
| 20260904230319 | 77 | 59 | 0.0 | 0.0 | 0.00 | 0.00 | 0.00 | 1 | 1008.4 |
| 20260904225548 | 78 | 59 | 0.0 | 0.0 | 0.00 | 0.00 | 0.00 | 1 | 1008.4 |
| 20260904225043 | 79 | 59 | 0.0 | 0.0 | 0.00 | 0.00 | 0.00 | 1 | 1008.4 |
| 20260904224536 | 80 | 59 | 0.0 | 0.0 | 0.00 | 0.00 | 0.00 | 1 | 1008.4 |
| 20260904224030 | 81 | 59 | 0.0 | 0.0 | 0.00 | 0.00 | 0.00 | 1 | 1008.4 |
| 20260904223524 | 81 | 59 | 0.0 | 0.0 | 0.00 | 0.00 | 0.00 | 13 | 1008.4 |
| 20260904223018 | 82 | 59 | 0.0 | 0.0 | 0.00 | 0.00 | 0.00 | 15 | 1008.4 |
| 20260904222512 | 82 | 59 | 0.0 | 1.0 | 0.00 | 0.00 | 0.00 | 26 | 1008.3 |
| 20260904222006 | 83 | 59 | 0.0 | 1.0 | 0.00 | 0.00 | 0.00 | 28 | 1008.2 |
| 20260904221459 | 83 | 59 | 0.0 | 4.0 | 0.00 | 0.00 | 0.00 | 34 | 1008.2 |
| 20260904220954 | 83 | 59 | 1.0 | 4.0 | 0.00 | 0.00 | 0.00 | 36 | 1008.2 |
| 20260904220448 | 84 | 59 | 1.0 | 4.0 | 0.00 | 0.00 | 0.00 | 38 | 1008.1 |
| 20260904215943 | 84 | 59 | 0.0 | 4.0 | 0.00 | 0.00 | 0.00 | 36 | 1008.1 |
| 20260904215436 | 84 | 59 | 0.0 | 4.0 | 0.00 | 0.00 | 0.00 | 37 | 1008.1 |
| 20260904215158 | 84 | 59 | 0.0 | 4.0 | 0.00 | 0.00 | 0.00 | 37 | 1008.0 |
| 20260904214436 | 84 | 59 | 1.0 | 5.0 | 0.00 | 0.00 | 0.00 | 37 | 1008.1 |
| 20260904213936 | 84 | 59 | 1.0 | 6.0 | 0.00 | 0.00 | 0.00 | 38 | 1008.0 |
| 20260904213436 | 84 | 57 | 1.0 | 6.0 | 0.00 | 0.00 | 0.00 | 38 | 1008.0 |
| 20260904212936 | 84 | 58 | 1.0 | 5.0 | 0.00 | 0.00 | 0.00 | 37 | 1008.0 |
| 20260904212659 | 84 | 58 | 1.0 | 5.0 | 0.00 | 0.00 | 0.00 | 37 | 1007.9 |
| 20260904211934 | 85 | 57 | 2.0 | 6.0 | 0.00 | 0.00 | 0.00 | 38 | 1007.9 |
| 20260904211434 | 84 | 61 | 1.0 | 6.0 | 0.00 | 0.00 | 0.00 | 37 | 1007.9 |
| 20260904210934 | 84 | 321 | 1.0 | 4.0 | 0.00 | 0.00 | 0.00 | 38 | 1008.0 |
| 20260904210434 | 85 | 320 | 1.0 | 4.0 | 0.00 | 0.00 | 0.00 | 37 | 1008.1 |
| 20260904205932 | 85 | 306 | 2.0 | 5.0 | 0.00 | 0.00 | 0.00 | 39 | 1008.1 |
| 20260904205432 | 85 | 74 | 2.0 | 5.0 | 0.00 | 0.00 | 0.00 | 38 | 1008.1 |
| 20260904205157 | 85 | 88 | 1.0 | 7.0 | 0.00 | 0.00 | 0.00 | 38 | 1008.3 |
| 20260904204430 | 85 | 88 | 3.0 | 8.0 | 0.00 | 0.00 | 0.00 | 37 | 1008.3 |
| 20260904203929 | 85 | 65 | 4.0 | 8.0 | 0.00 | 0.00 | 0.00 | 38 | 1008.3 |
| 20260904203430 | 85 | 74 | 2.0 | 8.0 | 0.00 | 0.00 | 0.00 | 37 | 1008.3 |
| 20260904202930 | 85 | 74 | 1.0 | 5.0 | 0.00 | 0.00 | 0.00 | 37 | 1008.2 |
| 20260904202646 | 85 | 58 | 1.0 | 5.0 | 0.00 | 0.00 | 0.00 | 37 | 1008.2 |
| 20260904201926 | 85 | 58 | 1.0 | 4.0 | 0.00 | 0.00 | 0.00 | 36 | 1008.3 |
| 20260904201426 | 84 | 58 | 1.0 | 4.0 | 0.00 | 0.00 | 0.00 | 37 | 1008.3 |
| 20260904200926 | 83 | 57 | 0.0 | 4.0 | 0.00 | 0.00 | 0.00 | 32 | 1008.4 |
| 20260904200426 | 83 | 58 | 1.0 | 4.0 | 0.00 | 0.00 | 0.00 | 37 | 1008.3 |
| 20260904195925 | 83 | 58 | 1.0 | 5.0 | 0.00 | 0.00 | 0.00 | 35 | 1008.3 |
| 20260904195426 | 83 | 58 | 0.0 | 5.0 | 0.00 | 0.00 | 0.00 | 35 | 1008.3 |
| 20260904194926 | 83 | 52 | 0.0 | 0.0 | 0.00 | 0.00 | 0.00 | 34 | 1008.4 |
| 20260904194426 | 83 | 52 | 1.0 | 7.0 | 0.00 | 0.00 | 0.00 | 34 | 1008.4 |
| 20260904193926 | 83 | 51 | 3.0 | 9.0 | 0.00 | 0.00 | 0.00 | 37 | 1008.4 |
| 20260904193422 | 85 | 53 | 3.0 | 9.0 | 0.00 | 0.00 | 0.00 | 37 | 1008.4 |
| 20260904192922 | 85 | 68 | 1.0 | 6.0 | 0.00 | 0.00 | 0.00 | 35 | 1008.5 |
| 20260904192422 | 85 | 269 | 2.0 | 6.0 | 0.00 | 0.00 | 0.00 | 37 | 1008.5 |
| 20260904191922 | 84 | 264 | 3.0 | 6.0 | 0.00 | 0.00 | 0.00 | 37 | 1008.5 |
| 20260904191422 | 84 | 41 | 1.0 | 5.0 | 0.00 | 0.00 | 0.00 | 36 | 1008.5 |
| 20260904190922 | 84 | 51 | 1.0 | 6.0 | 0.00 | 0.00 | 0.00 | 35 | 1008.5 |
| 20260904190422 | 84 | 51 | 2.0 | 8.0 | 0.00 | 0.00 | 0.00 | 35 | 1008.6 |
| 20260904185922 | 84 | 56 | 2.0 | 8.0 | 0.00 | 0.00 | 0.00 | 36 | 1008.6 |
| 20260904185647 | 83 | 305 | 2.0 | 7.0 | 0.00 | 0.00 | 0.00 | 35 | 1008.7 |
| 20260904184918 | 83 | 281 | 1.0 | 7.0 | 0.00 | 0.00 | 0.00 | 36 | 1008.7 |
| 20260904184419 | 83 | 55 | 1.0 | 7.0 | 0.00 | 0.00 | 0.00 | 34 | 1008.9 |
| 20260904183918 | 82 | 46 | 3.0 | 8.0 | 0.00 | 0.00 | 0.00 | 32 | 1009.0 |
| 20260904183418 | 82 | 50 | 4.0 | 10.0 | 0.00 | 0.00 | 0.00 | 33 | 1009.1 |
| 20260904182918 | 82 | 49 | 3.0 | 11.0 | 0.00 | 0.00 | 0.00 | 35 | 1009.1 |